TimeMST,TemperatureF,Dew PointF,Humidity,Sea Level PressureIn,VisibilityMPH,Wind Direction,Wind SpeedMPH,Gust SpeedMPH,PrecipitationIn,Events,Conditions,WindDirDegrees,DateUTC
12:53 AM,28.0,21.9,78,30.02,10.0,North,15.0,-,N/A,,Partly Cloudy,350,2013-02-14 07:53:00
1:53 AM,25.0,21.0,85,30.02,10.0,NW,8.1,-,N/A,,Partly Cloudy,320,2013-02-14 08:53:00
2:53 AM,21.9,18.0,85,30.03,10.0,WNW,9.2,-,N/A,,Clear,290,2013-02-14 09:53:00
3:53 AM,24.1,19.0,81,30.03,10.0,WSW,11.5,-,N/A,,Clear,240,2013-02-14 10:53:00
4:53 AM,26.1,21.0,81,30.05,10.0,WSW,11.5,-,N/A,,Mostly Cloudy,240,2013-02-14 11:53:00
5:53 AM,26.1,21.0,81,30.09,10.0,West,6.9,-,N/A,,Overcast,270,2013-02-14 12:53:00
6:53 AM,26.1,21.0,81,30.12,10.0,West,9.2,-,N/A,,Overcast,280,2013-02-14 13:53:00
7:53 AM,28.0,21.9,78,30.14,10.0,WNW,6.9,-,N/A,,Overcast,290,2013-02-14 14:53:00
8:53 AM,30.0,24.1,79,30.16,3.0,WNW,10.4,-,0.00,Snow,Light Snow,300,2013-02-14 15:53:00
8:56 AM,30.2,24.8,80,30.09,2.5,WNW,10.4,-,0.00,Snow,Light Snow,300,2013-02-14 15:56:00
9:05 AM,30.2,24.8,80,30.10,1.2,NW,11.5,-,0.00,Snow,Light Snow,310,2013-02-14 16:05:00
9:09 AM,30.2,24.8,80,30.10,0.8,NW,12.7,-,0.00,Snow,Light Snow,320,2013-02-14 16:09:00
9:23 AM,28.4,26.6,93,30.11,0.5,NNW,13.8,-,0.00,Fog-Snow,Snow,330,2013-02-14 16:23:00
9:53 AM,28.9,27.0,92,30.21,1.2,NNW,17.3,-,0.01,Snow,Light Snow,330,2013-02-14 16:53:00
9:56 AM,28.4,26.6,93,30.13,0.8,NNW,31.1,39.1,0.00,Snow,Light Snow,340,2013-02-14 16:56:00
10:06 AM,26.6,24.8,93,30.13,1.2,NNW,23.0,36.8,0.00,Snow,Light Snow,340,2013-02-14 17:06:00
10:08 AM,26.6,24.8,93,30.14,2.0,NNW,23.0,32.2,0.00,Snow,Light Snow,340,2013-02-14 17:08:00
10:11 AM,26.6,24.8,93,30.14,3.0,NNW,24.2,32.2,0.00,Snow,Light Snow,340,2013-02-14 17:11:00
10:28 AM,28.4,21.2,74,30.15,10.0,North,20.7,-,0.00,,Overcast,350,2013-02-14 17:28:00
10:53 AM,28.9,19.9,69,30.25,10.0,North,24.2,33.4,0.00,,Overcast,350,2013-02-14 17:53:00
11:53 AM,28.0,19.0,69,30.28,5.0,North,29.9,35.7,0.00,Snow,Light Snow,350,2013-02-14 18:53:00
12:20 PM,28.4,19.4,69,30.17,2.5,North,27.6,34.5,0.00,Snow,Light Snow,350,2013-02-14 19:20:00
12:35 PM,28.4,19.4,69,30.17,5.0,North,23.0,-,0.00,Snow,Light Snow,350,2013-02-14 19:35:00
12:53 PM,28.0,19.0,69,30.27,7.0,North,17.3,-,0.00,Snow,Light Snow,360,2013-02-14 19:53:00
1:34 PM,28.4,19.4,69,30.19,1.8,NNW,21.9,29.9,0.00,Snow,Light Snow,340,2013-02-14 20:34:00
1:46 PM,28.4,19.4,69,30.19,2.5,NNW,20.7,28.8,0.00,Snow,Light Snow,340,2013-02-14 20:46:00
1:53 PM,28.0,19.9,72,30.30,2.5,North,21.9,-,0.00,Snow,Light Snow,350,2013-02-14 20:53:00
2:05 PM,28.4,19.4,69,30.20,3.0,North,20.7,25.3,0.00,Snow,Light Snow,360,2013-02-14 21:05:00
2:14 PM,28.4,19.4,69,30.20,2.5,North,20.7,-,0.00,Snow,Light Snow,350,2013-02-14 21:14:00
2:16 PM,28.4,19.4,69,30.20,3.0,North,19.6,27.6,0.00,Snow,Light Snow,350,2013-02-14 21:16:00
2:53 PM,28.0,16.0,61,30.33,10.0,North,21.9,28.8,0.00,,Overcast,350,2013-02-14 21:53:00
4:53 PM,26.1,14.0,60,30.36,10.0,North,11.5,-,N/A,,Overcast,350,2013-02-14 23:53:00
6:53 PM,21.0,12.9,71,30.39,10.0,NNW,10.4,-,N/A,,Overcast,330,2013-02-15 01:53:00
7:53 PM,17.1,10.0,74,30.40,10.0,NW,9.2,-,N/A,,Overcast,320,2013-02-15 02:53:00
8:53 PM,19.9,10.0,65,30.38,10.0,NW,10.4,-,N/A,,Partly Cloudy,310,2013-02-15 03:53:00
9:53 PM,19.9,10.9,68,30.38,10.0,WNW,10.4,-,N/A,,Partly Cloudy,300,2013-02-15 04:53:00
10:53 PM,19.9,9.0,62,30.38,10.0,WNW,10.4,-,N/A,,Scattered Clouds,300,2013-02-15 05:53:00
11:53 PM,16.0,8.1,71,30.41,10.0,NNW,6.9,-,N/A,,Scattered Clouds,330,2013-02-15 06:53:00